User: anonymous   Login
Location: Unspecified
(48.2082°N, 0.0000°E)
Time: 11:18:24
(UTC+00:00)
Language:

A-11 Canister half - Orbit

View from above orbital plane
View from above orbital plane
View from above satellite
View from above satellite

Ground track
Ground track

The orbit data is extracted from the following two-line orbital elements,

1    53U 60009E   19168.43169525 -.00000028 +00000-0 +56569-3 0  9998
2    53 047.2770 307.7193 0099178 080.4302 280.7677 12.17228810623985
Epoch (UTC): 17 June 2019 10:21:38
Eccentricity: 0.0099178
inclination: 47.2770°
perigee height: 1525 km
apogee height: 1684 km
right ascension of ascending node: 307.7193°
argument of perigee: 80.4302°
revolutions per day: 12.17228810
mean anomaly at epoch: 280.7677°
orbit number at epoch: 62398

The dashed part of the orbit path shows where the satellite is in the earth's shadow,  

DLR